Regional Weather Roundup
Issued by NWS

Home | Current Version | Previous Version | Text Only | Print | Product List | Glossary On
Versions: 1 2 3 4 5 6 7 8 9 10 11 12 13 14 15 16 17 18 19 20 21 22 23 24 25 26 27 28 29 30 31 32 33 34 35 36 37 38 39 40 41 42 43 44 45 46 47 48 49 50
224
ASUS42 KFFC 241010
RWRGA
WEATHER ROUNDUP FOR GEORGIA
NATIONAL WEATHER SERVICE PEACHTREE CITY GA
600 AM EDT MON APR 24 2017

NOTE: "FAIR" INDICATES FEW OR NO CLOUDS BELOW 12,000 FEET WITH NO
SIGNIFICANT WEATHER AND/OR OBSTRUCTIONS TO VISIBILITY.

* = USE WITH CAUTION. THE STATIONS MARKED WITH AN ASTERISK MAY NOT
REPORT WEATHER SUCH AS PRECIPITATION, FOG, OR THUNDER AND ARE NOT
QUALITY CONTROLLED BY NWS.

THE REMARK "TC" DENOTES TEMPERATURE READING IN DEGREES CELSIUS.

GAZ001>058-241100-
NORTH GEORGIA

CITY           SKY/WX    TMP DP  RH WIND       PRES   REMARKS
ATLANTA        DRIZZLE   53  50  89 NE10      29.75S
ATHENS         LGT RAIN  51  51 100 NE9       29.76R
CHAMBLEE       CLOUDY    52  48  86 MISG      29.75S
PEACHTREE CITY CLOUDY    53  52  96 VRB6      29.75S
ROME           CLOUDY    56  52  86 N3        29.76S
WEST ATLANTA   CLOUDY    53  52  96 N6        29.75S
GAINESVILLE    CLOUDY    50  50 100 E12G21    29.78S
CARTERSVILLE   CLOUDY    54  52  93 VRB3      29.77S


CITY           SKY/WX    TMP DP  RH WIND       PRES   REMARKS
DALTON*        DRIZZLE   54  54 100 CALM      29.77S
MARIETTA       CLOUDY    52  49  90 E5        29.75S
CANTON*        CLOUDY    54  48  82 E3        29.77F
$$

GAZ059>098-102>109-241100-
CENTRAL GEORGIA

CITY           SKY/WX    TMP DP  RH WIND       PRES   REMARKS
AUGUSTA-BUSH   CLOUDY    60  56  86 N8        29.70S
AUGUSTA-DANIEL LGT RAIN  58  53  84 N8        29.72R
COLUMBUS       CLOUDY    57  50  77 NW7       29.73S
MACON          CLOUDY    56  54  93 N6        29.72S
ROBINS AFB     CLOUDY    57  55  94 N6        29.71S


CITY           SKY/WX    TMP DP  RH WIND       PRES   REMARKS
LAGRANGE*      DRIZZLE   55  55 100 N7        29.74S
SYLVANIA*      CLOUDY    70  66  88 E3        29.67F FOG
MILLEDGEVILLE* CLOUDY    55  55 100 N5        29.72S FOG
$$

GAZ099>101-110>166-241100-
SOUTH GEORGIA

CITY           SKY/WX    TMP DP  RH WIND       PRES   REMARKS
SAVANNAH       MOCLDY    68  64  87 W5        29.67S
VALDOSTA       PTCLDY    58  55  90 VRB3      29.72S
ALMA           CLOUDY    62  61  96 W5        29.70S
ST SIMONS      PTCLDY    70  66  87 SW9       29.68S
FT STEWART     PTCLDY    67  66  94 CALM      29.65F
ALBANY         CLEAR     54  53  97 W3        29.76S
HUNTER AFB     PTCLDY    70  70 100 W6        29.65R
MOODY AFB      CLEAR     58  54  87 W5        29.71S
BRUNSWICK      PTCLDY    70  68  94 SW5       29.69S


CITY           SKY/WX    TMP DP  RH WIND       PRES   REMARKS
BAINBRIDGE*    MOCLDY    55  54  94 NW7       29.75S
MOULTRIE*      CLEAR     55  54  94 CALM      29.74F
VIDALIA*       CLOUDY    63  63 100 SW7       29.69R
WAYCROSS*      CLOUDY    65  64  97 W7        29.71R
DOUGLAS*       CLOUDY    61  59  94 NW3       29.73R
$$




USA.gov is the U.S. government's official web portal to all federal, state and local government web resources and services.